Location: Newark
(46.6000°N, 11.5667°E)
Time: 11:47:33
(UTC+00:00)

Envisat - Visible Passes

Search period start: 20 January 2020 00:00
Search period end: 30 January 2020 00:00
Orbit: 764 x 766 km, 98.1° (Epoch: 20 January)

Date Brightness Start Highest point End Pass type
(mag) Time Alt. Az. Time Alt. Az. Time Alt. Az.
20 Jan 3.3 05:58:19 10° NNE 06:03:26 76° ESE 06:08:31 10° S visible
20 Jan 3.5 17:15:39 10° S 17:20:40 64° WSW 17:25:45 10° NNW visible
21 Jan 4.7 05:21:49 10° NNE 05:26:31 36° E 05:31:10 10° SSE visible
21 Jan 3.0 16:38:55 10° SSE 16:43:55 62° ENE 16:48:57 10° N visible
21 Jan 5.8 18:19:53 10° SW 18:23:22 18° W 18:26:52 10° NW visible
22 Jan 5.9 04:46:01 10° NE 04:49:24 18° E 04:52:46 10° SE visible
22 Jan 4.6 17:41:34 10° SSW 17:46:15 38° W 17:51:00 10° NNW visible
23 Jan 3.7 05:47:04 10° NNE 05:52:07 61° E 05:57:08 10° S visible
23 Jan 3.2 17:04:17 10° S 17:09:22 80° WSW 17:14:29 10° NNW visible
23 Jan 6.4 18:48:17 10° W 18:49:13 10° W 18:50:09 10° WNW visible
24 Jan 5.1 05:10:43 10° NE 05:15:09 29° E 05:19:32 10° SSE visible
24 Jan 5.5 18:07:59 10° SW 18:11:57 23° W 18:15:58 10° NW visible
25 Jan 6.2 04:35:20 10° NE 04:37:58 14° E 04:40:35 10° ESE visible
25 Jan 4.1 17:30:03 10° S 17:34:55 47° W 17:39:50 10° NNW visible
26 Jan 4.1 05:35:51 10° NNE 05:40:47 49° E 05:45:42 10° S visible
26 Jan 3.0 16:53:00 10° SSE 16:58:04 84° ENE 17:03:11 10° NNW visible
26 Jan 6.2 18:35:18 10° WSW 18:37:45 13° W 18:40:14 10° WNW visible
27 Jan 5.5 04:59:41 10° NE 05:03:45 24° E 05:07:48 10° SE visible
27 Jan 5.1 17:56:14 10° SSW 18:00:34 28° W 18:04:56 10° NW visible
28 Jan 6.4 04:25:11 10° ENE 04:26:30 11° E 04:27:51 10° E visible
28 Jan 3.2 06:01:13 10° NNE 06:06:20 82° ESE 06:11:25 10° SSW visible
28 Jan 3.7 17:18:35 10° S 17:23:35 59° W 17:28:37 10° NNW visible
29 Jan 4.6 05:24:40 10° NNE 05:29:27 39° E 05:34:11 10° SSE visible
29 Jan 3.0 16:41:46 10° SSE 16:46:48 68° ENE 16:51:52 10° N visible
29 Jan 5.9 18:23:04 10° SW 18:26:19 17° W 18:29:35 10° NW visible
